Date,TemperatureHighF,TemperatureAvgF,TemperatureLowF,DewpointHighF,DewpointAvgF,DewpointLowF,HumidityHigh,HumidityAvg,HumidityLow,PressureMaxIn,PressureMinIn,WindSpeedMaxMPH,WindSpeedAvgMPH,GustSpeedMaxMPH,PrecipitationSumIn
2013-1-1,43,39,34,39,34,26,89,82,71,0.00,0.00,0,0,0,0.20
2013-1-2,43,39,37,40,36,33,89,86,82,0.00,0.00,6,0,6,0.00
2013-1-3,41,36,29,35,30,24,87,82,74,0.00,0.00,4,0,4,0.00
2013-1-4,46,31,26,33,23,19,83,73,58,0.00,0.00,7,0,7,0.00
2013-1-5,47,35,22,30,24,16,80,65,45,0.00,0.00,5,0,5,0.00
2013-1-6,45,40,36,37,32,28,80,75,63,0.00,0.00,7,1,7,0.00
2013-1-7,53,39,29,36,27,23,80,64,42,0.00,0.00,11,0,11,0.00
2013-1-8,54,41,28,42,32,22,79,70,57,0.00,0.00,8,0,8,0.00
2013-1-9,48,44,41,43,39,34,85,81,77,0.00,0.00,0,0,0,0.00
2013-1-10,65,53,43,54,46,40,88,79,65,0.00,0.00,12,0,12,0.00
2013-1-11,59,55,50,54,51,45,91,87,75,0.00,0.00,22,1,22,0.06
2013-1-12,70,60,54,63,55,51,91,84,71,0.00,0.00,12,0,12,0.00
2013-1-13,70,63,59,58,55,52,86,76,62,0.00,0.00,10,1,12,0.00
2013-1-14,62,53,45,57,50,42,91,90,86,0.00,0.00,6,0,6,0.53
2013-1-15,53,48,45,50,46,42,93,92,91,0.00,0.00,6,0,6,0.00
2013-1-16,57,52,48,55,50,46,93,92,92,0.00,0.00,4,0,4,0.04
2013-1-17,50,42,33,48,39,30,92,92,91,0.00,0.00,8,0,8,0.23
2013-1-18,44,34,29,35,28,25,91,81,66,0.00,0.00,6,0,6,0.00
2013-1-19,51,37,26,37,27,22,87,71,41,0.00,0.00,5,0,5,0.00
2013-1-20,53,38,27,41,29,22,84,72,59,0.00,0.00,6,0,6,0.00
2013-1-21,50,35,27,36,24,15,83,66,45,0.00,0.00,22,0,22,0.00
2013-1-22,35,26,20,15,9,5,59,49,39,0.00,0.00,8,0,8,0.00
2013-1-23,42,31,25,25,16,7,69,53,44,0.00,0.00,10,0,10,0.00
2013-1-24,42,33,25,32,18,8,74,55,40,0.00,0.00,10,1,10,0.00
2013-1-25,37,28,23,33,18,6,85,66,46,0.00,0.00,14,2,14,0.02
2013-1-26,43,36,29,33,28,22,86,74,57,0.00,0.00,7,1,7,0.00
2013-1-27,44,35,25,32,26,19,83,71,59,0.00,0.00,11,1,11,0.00
2013-1-28,63,48,34,48,38,27,79,70,57,0.00,0.00,9,0,9,0.00
2013-1-29,69,54,40,56,46,36,87,75,52,0.00,0.00,22,0,22,0.00
2013-1-30,64,58,45,59,54,42,90,86,81,0.00,0.00,15,2,15,0.34
2013-1-31,45,34,29,42,25,21,90,70,55,0.00,0.00,10,0,10,0.00
2013-2-1,39,27,20,28,17,11,78,66,58,0.00,0.00,10,1,10,0.00
2013-2-2,42,29,18,30,19,10,79,67,50,0.00,0.00,8,0,8,0.00
2013-2-3,42,34,29,34,27,20,82,74,61,0.00,0.00,11,0,11,0.05
2013-2-4,51,36,25,31,24,18,76,62,40,0.00,0.00,8,0,8,0.00
2013-2-5,52,41,32,40,30,22,75,66,55,0.00,0.00,7,0,7,0.00
2013-2-6,55,42,31,36,29,23,83,63,41,0.00,0.00,6,0,6,0.00
2013-2-7,46,40,34,37,31,24,87,71,54,0.00,0.00,5,0,5,0.30
2013-2-8,48,41,34,44,36,27,89,82,67,0.00,0.00,9,0,9,0.02
2013-2-9,50,38,29,30,25,21,78,63,42,0.00,0.00,6,0,6,0.00
2013-2-10,50,44,33,42,28,22,90,57,38,0.00,0.00,18,2,18,0.11
2013-2-11,56,50,44,51,45,35,91,83,69,0.00,0.00,11,0,11,0.00
2013-2-12,51,43,36,35,32,27,83,64,50,0.00,0.00,7,0,7,0.10
2013-2-13,49,41,36,43,36,30,88,82,69,0.00,0.00,13,1,13,0.06
2013-2-14,50,40,34,34,29,24,80,67,52,0.00,0.00,6,0,6,0.00
2013-2-15,56,39,28,38,30,22,81,71,47,0.00,0.00,5,0,5,0.02
2013-2-16,34,31,24,28,23,14,80,72,56,0.00,0.00,8,0,8,0.00
2013-2-17,34,27,21,17,12,9,65,55,44,0.00,0.00,11,1,11,0.00
2013-2-18,52,36,19,28,20,10,73,55,39,0.00,0.00,14,2,14,0.00
2013-2-19,52,42,34,42,28,16,83,59,42,0.00,0.00,12,2,12,0.02
2013-2-20,45,35,28,19,15,11,56,45,33,0.00,0.00,10,2,10,0.00
2013-2-21,58,40,23,32,19,10,75,46,26,0.00,0.00,8,0,8,0.02
2013-2-22,46,40,36,39,35,32,86,81,72,0.00,0.00,13,1,13,0.00
2013-2-23,54,46,40,50,42,36,89,87,85,0.00,0.00,3,0,3,0.16
2013-2-24,52,42,32,41,32,22,88,69,46,0.00,0.00,8,1,8,0.00
2013-2-25,47,38,29,29,26,21,78,63,47,0.00,0.00,9,1,9,0.00
2013-2-26,45,39,34,41,35,29,90,86,71,0.00,0.00,18,1,18,0.00
2013-2-27,50,42,37,38,34,32,88,75,61,0.00,0.00,7,1,7,0.00
2013-2-28,38,35,32,33,28,25,82,76,69,0.00,0.00,9,0,9,0.00
2013-3-1,39,34,31,32,28,25,83,79,73,0.00,0.00,9,0,9,0.00
2013-3-2,40,33,28,31,27,21,83,77,67,0.00,0.00,7,0,7,0.00
2013-3-3,33,28,24,21,18,16,77,68,58,0.00,0.00,7,1,7,0.00
2013-3-4,48,35,25,26,20,15,69,55,38,0.00,0.00,8,0,8,0.00
2013-3-5,49,39,33,46,32,21,90,77,56,0.00,0.00,8,0,8,0.12
2013-3-6,34,30,27,30,25,22,85,82,77,0.00,0.00,9,0,9,0.00
2013-3-7,38,32,28,30,26,23,83,79,73,0.00,0.00,8,0,8,0.00
2013-3-8,46,34,25,33,25,20,83,70,53,0.00,0.00,7,0,7,0.00
2013-3-9,62,44,26,36,28,20,80,56,34,0.00,0.00,10,1,10,0.00
2013-3-10,64,54,45,37,32,28,53,44,34,0.00,0.00,14,2,14,0.00
2013-3-11,56,52,50,50,45,35,91,79,48,0.00,0.00,15,2,15,0.02
2013-3-12,52,43,35,49,38,29,91,83,68,0.00,0.00,10,1,10,0.00
2013-3-13,45,36,30,34,26,18,83,68,51,0.00,0.00,10,0,10,0.00
2013-3-14,44,33,25,24,18,15,66,55,42,0.00,0.00,22,1,22,0.00
2013-3-15,65,46,30,42,30,16,69,55,36,0.00,0.00,8,0,8,0.00
2013-3-16,74,59,44,51,44,36,77,59,42,0.00,0.00,7,0,7,0.00
2013-3-17,72,60,50,52,46,41,74,61,41,0.00,0.00,11,1,11,0.00
2013-3-18,51,45,41,43,40,37,88,83,73,0.00,0.00,14,2,14,0.02
2013-3-19,53,45,36,41,33,18,89,66,41,0.00,0.00,10,0,10,0.00
2013-3-20,52,40,30,25,20,16,71,47,31,0.00,0.00,22,0,22,0.00
2013-3-21,36,30,22,24,17,12,73,59,46,0.00,0.00,8,1,8,0.00
2013-3-22,48,35,22,24,18,11,67,52,38,0.00,0.00,6,0,6,0.00
2013-3-23,55,44,37,43,33,23,75,65,51,0.00,0.00,8,0,8,0.03
2013-3-24,48,43,39,43,39,35,88,84,73,0.00,0.00,13,1,13,0.00
2013-3-25,39,35,31,35,27,23,88,73,58,0.00,0.00,13,1,13,0.00
2013-3-26,39,32,28,31,26,23,82,77,71,0.00,0.00,10,0,10,0.00
2013-3-27,43,35,30,31,26,22,81,71,60,0.00,0.00,8,1,8,0.00
2013-3-28,50,37,25,31,24,18,78,60,41,0.00,0.00,8,1,8,0.00
2013-3-29,56,38,26,34,27,18,80,65,42,0.00,0.00,8,0,8,0.00
2013-3-30,60,49,39,47,40,34,86,72,54,0.00,0.00,4,0,5,0.00
2013-3-31,61,52,47,53,47,40,88,81,57,0.00,0.00,7,0,7,0.00
2013-4-1,59,50,41,50,43,35,90,77,60,0.00,0.00,9,0,9,0.00
2013-4-2,54,45,37,35,29,25,69,54,38,0.00,0.00,8,1,8,0.00
2013-4-3,59,46,33,31,25,18,58,44,32,0.00,0.00,6,0,6,0.00
2013-4-4,48,40,35,34,28,18,84,66,34,0.00,0.00,12,1,12,0.00
2013-4-5,54,44,38,45,37,32,87,77,58,0.00,0.00,7,0,7,0.00
2013-4-6,66,50,32,43,34,27,84,59,34,0.00,0.00,11,1,11,0.00
2013-4-7,70,59,48,46,40,33,59,50,40,0.00,0.00,12,2,12,0.00
2013-4-8,74,61,45,53,46,37,77,59,46,0.00,0.00,11,1,11,0.00
2013-4-9,80,66,49,58,52,42,80,61,44,0.00,0.00,10,1,10,0.00
2013-4-10,84,69,51,60,53,45,81,60,39,0.00,0.00,9,1,9,0.00
2013-4-11,78,68,61,60,55,52,88,64,45,0.00,0.00,12,2,12,0.02
2013-4-12,65,59,47,58,51,38,90,77,56,0.00,0.00,8,1,8,0.00
2013-4-13,68,55,46,46,40,35,72,57,40,0.00,0.00,9,1,9,0.00
2013-4-14,69,55,39,47,40,32,80,60,36,0.00,0.00,12,1,12,0.00
2013-4-15,71,60,52,57,52,46,88,76,58,0.00,0.00,12,0,12,0.00
2013-4-16,79,67,57,62,56,52,86,69,48,0.00,0.00,9,1,9,0.00
2013-4-17,73,65,59,64,57,53,88,77,66,0.00,0.00,7,0,7,0.00
2013-4-18,74,67,60,60,57,54,83,70,52,0.00,0.00,13,2,13,0.00
2013-4-19,68,59,43,61,55,38,89,84,75,0.00,0.00,15,1,15,0.00
2013-4-20,56,46,36,38,34,30,80,64,46,0.00,0.00,8,1,9,0.00
2013-4-21,62,47,33,40,33,28,83,61,38,0.00,0.00,10,1,10,0.00
2013-4-22,64,52,38,44,37,31,77,58,40,0.00,0.00,10,1,10,0.00
2013-4-23,71,56,37,46,38,27,71,52,34,0.00,0.00,11,1,11,0.00
2013-4-24,72,60,48,56,49,40,79,66,48,0.00,0.00,8,0,8,0.00
2013-4-25,65,52,42,44,36,28,81,59,31,0.00,0.00,9,0,9,0.00
2013-4-26,68,52,34,42,35,26,77,55,34,0.00,0.00,8,0,8,0.00
2013-4-27,55,52,50,49,47,42,91,82,64,0.00,0.00,6,0,6,0.02
2013-4-28,53,51,47,50,47,42,91,87,77,0.00,0.00,10,1,10,0.00
2013-4-29,70,59,50,60,53,48,92,81,60,0.00,0.00,5,0,5,0.00
2013-4-30,74,63,53,60,54,49,90,73,50,0.00,0.00,0,0,0,0.00
2013-5-1,67,60,52,54,52,47,84,74,60,0.00,0.00,10,1,10,0.00
2013-5-2,67,59,55,56,52,49,84,77,66,0.00,0.00,9,1,9,0.00
2013-5-3,62,58,53,51,49,46,83,73,59,0.00,0.00,11,1,11,0.00
2013-5-4,57,52,48,48,45,38,87,75,67,0.00,0.00,14,2,14,0.00
2013-5-5,54,50,48,50,47,45,92,89,85,0.00,0.00,9,1,9,0.02
2013-5-6,64,56,48,51,47,41,92,74,47,0.00,0.00,12,1,12,0.00
2013-5-7,68,54,43,51,45,38,86,73,51,0.00,0.00,12,0,12,0.00
2013-5-8,66,58,52,58,52,48,89,82,69,0.00,0.00,4,0,4,0.00
2013-5-9,74,62,52,62,53,49,90,75,54,0.00,0.00,4,0,4,0.00
2013-5-10,76,62,51,63,55,46,87,78,56,0.00,0.00,0,0,0,0.00
2013-5-11,70,63,57,63,58,53,89,85,75,0.00,0.00,5,0,5,0.26
2013-5-12,62,54,42,53,44,34,87,70,48,0.00,0.00,8,0,8,0.00
2013-5-13,62,50,39,40,35,33,79,59,39,0.00,0.00,12,0,12,0.00
2013-5-14,72,56,36,49,41,30,81,61,40,0.00,0.00,6,0,6,0.00
2013-5-15,83,66,49,62,52,43,83,63,43,0.00,0.00,8,0,8,0.00
2013-5-16,76,64,52,61,54,47,83,69,53,0.00,0.00,7,0,7,0.00
2013-5-17,79,66,53,62,55,48,85,69,47,0.00,0.00,22,0,22,0.00
2013-5-18,68,65,61,62,59,55,91,81,64,0.00,0.00,8,0,8,0.04
2013-5-19,76,67,62,66,62,58,90,83,69,0.00,0.00,9,0,9,0.00
2013-5-20,81,70,61,68,63,57,91,79,60,0.00,0.00,5,0,5,0.00
2013-5-21,83,71,61,69,62,57,89,74,57,0.00,0.00,8,0,8,0.00
2013-5-22,79,67,60,68,60,55,88,79,60,0.00,0.00,6,0,6,0.15
2013-5-23,78,67,60,65,59,54,91,77,50,0.00,0.00,6,0,6,0.02
2013-5-24,64,59,48,54,47,38,84,67,48,0.00,0.00,13,1,13,0.02
2013-5-25,72,56,41,47,41,35,82,60,33,0.00,0.00,8,0,8,0.00
2013-5-26,72,61,53,52,48,42,79,63,43,0.00,0.00,7,0,7,0.00
2013-5-27,78,65,49,60,52,43,84,66,51,0.00,0.00,5,0,5,0.00
2013-5-28,82,71,60,64,58,52,80,65,48,0.00,0.00,8,0,8,0.00
2013-5-29,83,72,60,65,59,54,83,65,44,0.00,0.00,8,0,8,0.00
2013-5-30,81,71,60,64,59,54,85,68,51,0.00,0.00,4,0,4,0.00
2013-5-31,81,72,65,64,60,57,82,66,50,0.00,0.00,8,1,8,0.00
2013-6-1,81,73,65,65,61,58,80,66,48,0.00,0.00,12,1,12,0.00
2013-6-2,71,67,64,66,63,62,91,87,74,0.00,0.00,5,0,5,0.44
2013-6-3,78,69,63,68,62,57,92,80,60,0.00,0.00,8,0,8,0.00
2013-6-4,80,69,60,66,60,56,88,75,57,0.00,0.00,6,0,6,0.00
2013-6-5,80,70,61,67,62,56,90,77,61,0.00,0.00,8,0,8,0.17
2013-6-6,77,69,64,68,64,61,92,84,71,0.00,0.00,3,0,3,0.00
2013-6-7,78,69,63,69,64,58,90,83,70,0.00,0.00,3,0,3,0.57
2013-6-8,77,68,60,67,62,57,91,82,68,0.00,0.00,0,0,0,0.33
2013-6-9,79,67,60,70,62,56,92,87,74,0.00,0.00,5,0,5,0.69
2013-6-10,74,68,64,68,64,59,93,85,71,0.00,0.00,8,0,8,0.04
2013-6-11,79,70,63,68,63,60,91,79,63,0.00,0.00,3,0,3,0.00
2013-6-12,88,74,62,74,66,58,90,79,61,0.00,0.00,0,0,0,0.00
2013-6-13,87,71,64,71,65,60,90,82,57,0.00,0.00,2,0,2,0.08
2013-6-14,76,67,57,63,58,52,90,74,54,0.00,0.00,8,0,8,0.00
2013-6-15,81,67,53,64,57,48,87,72,53,0.00,0.00,2,0,2,0.00
2013-6-16,84,72,60,66,62,55,87,73,53,0.00,0.00,2,0,2,0.00
2013-6-17,78,71,66,71,66,62,89,83,72,0.00,0.00,0,0,0,0.10
2013-6-18,75,69,63,70,65,59,91,87,81,0.00,0.00,7,0,7,0.02
2013-6-19,78,68,60,66,61,57,91,81,65,0.00,0.00,5,0,5,0.33
2013-6-20,65,62,60,61,59,57,89,88,87,0.00,0.00,0,0,0,0.00
2013-7-20,79,75,71,72,69,67,88,82,77,0.00,0.00,0,0,0,0.00
2013-7-21,82,72,68,74,68,65,91,87,74,0.00,0.00,0,0,0,0.07
2013-7-22,83,73,66,72,68,63,92,83,65,0.00,0.00,0,0,0,0.14
2013-7-23,81,72,66,71,67,63,92,84,70,0.00,0.00,0,0,0,0.00
2013-7-24,82,72,67,72,66,63,91,82,63,0.00,0.00,0,0,0,0.00
2013-7-25,82,72,65,69,64,60,90,79,56,0.00,0.00,0,0,0,0.00
2013-7-26,81,70,61,69,63,57,89,79,63,0.00,0.00,0,0,0,0.00
2013-7-27,77,71,67,71,66,63,92,85,74,0.00,0.00,0,0,0,0.39
2013-7-28,79,71,66,69,65,61,91,82,68,0.00,0.00,0,0,0,0.00
2013-7-29,79,68,59,65,60,56,89,76,54,0.00,0.00,0,0,0,0.00
2013-7-30,78,67,58,68,61,54,88,80,64,0.00,0.00,0,0,0,0.00
2013-7-31,74,69,65,69,65,62,91,88,82,0.00,0.00,0,0,0,0.16
2013-8-1,80,72,67,72,67,62,92,85,71,0.00,0.00,0,0,0,0.00
2013-8-2,82,71,62,70,64,59,91,81,65,0.00,0.00,0,0,0,0.00
2013-8-3,81,71,64,70,65,60,90,81,66,0.00,0.00,0,0,0,0.00
2013-8-4,79,71,65,70,64,60,91,80,63,0.00,0.00,8,0,8,0.00
2013-8-5,82,70,62,68,63,58,89,79,62,0.00,0.00,3,0,3,0.04
2013-8-6,81,72,65,70,66,61,91,83,54,0.00,0.00,4,0,4,0.02
2013-8-7,71,71,71,67,66,66,86,85,85,0.00,0.00,0,0,0,0.00
2013-8-8,81,73,67,73,68,64,92,86,74,0.00,40.00,0,0,4,0.00
2013-8-9,82,73,68,74,70,65,92,88,74,0.00,40.00,0,0,0,0.31
2013-8-10,81,72,68,76,69,65,93,90,77,0.00,0.00,5,0,5,0.33
2013-8-11,82,72,67,75,68,64,94,89,78,0.00,0.00,0,0,0,0.14
2013-8-12,82,72,68,75,69,66,93,89,79,0.00,0.00,0,0,0,0.02
2013-8-13,80,72,69,74,69,65,93,88,77,0.00,0.00,0,0,0,0.04
2013-8-14,74,68,63,65,62,58,90,81,66,0.00,0.00,22,0,22,0.00
2013-8-15,71,64,59,60,57,54,88,78,66,0.00,0.00,7,0,7,0.00
2013-8-16,68,61,58,59,56,54,89,85,69,0.00,0.00,4,0,4,0.00
2013-8-17,70,65,62,62,59,56,90,81,72,0.00,0.00,2,0,3,0.08
2013-8-18,75,66,62,69,63,60,92,89,76,0.00,0.00,0,0,0,0.10
2013-8-19,72,68,64,68,64,62,93,90,82,0.00,0.00,0,0,0,0.76
2013-8-20,78,70,64,70,66,62,93,88,78,0.00,0.00,0,0,0,0.00
2013-8-21,74,70,65,70,66,62,92,88,84,0.00,0.00,0,0,0,0.00
2013-8-22,81,72,66,72,66,63,93,85,69,0.00,0.00,0,0,0,0.00
2013-8-23,80,71,64,71,65,61,92,84,71,0.00,0.00,0,0,0,0.00
2013-8-24,78,70,63,66,62,56,91,77,53,0.00,0.00,0,0,0,0.00
2013-8-25,76,65,55,63,57,50,88,76,59,0.00,0.00,0,0,0,0.00
2013-8-26,77,66,56,66,59,52,89,80,65,0.00,0.00,0,0,0,0.00
2013-8-27,79,69,60,70,63,56,90,83,72,0.00,0.00,0,0,0,0.00
2013-8-28,82,73,66,72,67,62,91,83,70,0.00,0.00,0,0,0,0.00
2013-8-29,83,75,69,73,69,65,90,83,69,0.00,0.00,0,0,0,0.30
2013-8-30,80,73,68,72,69,66,93,85,72,0.00,0.00,0,0,0,0.00
2013-8-31,81,73,68,74,68,65,91,85,77,0.00,0.00,0,0,0,0.00
2013-9-1,84,72,68,73,68,64,92,86,67,0.00,0.00,4,0,4,0.31
2013-9-2,80,72,67,73,67,64,92,87,75,0.00,0.00,0,0,0,0.00
2013-9-3,77,70,63,69,64,60,92,84,69,0.00,0.00,7,0,7,0.29
2013-9-4,79,68,61,68,63,58,91,83,67,0.00,0.00,0,0,0,0.00
2013-9-5,78,67,61,67,61,57,91,81,60,0.00,0.00,3,0,3,0.00
2013-9-6,78,66,56,64,59,52,90,79,60,0.00,0.00,0,0,0,0.00
2013-9-7,78,67,60,67,61,56,90,81,64,0.00,0.00,0,0,0,0.00
2013-9-8,77,68,60,69,63,56,90,84,72,0.00,0.00,0,0,0,0.00
2013-9-9,81,71,63,70,64,60,91,81,62,0.00,0.00,0,0,0,0.00
2013-9-10,82,71,62,69,64,58,91,80,60,0.00,0.00,4,0,4,0.00
2013-9-11,81,71,64,71,65,61,90,83,68,0.00,0.00,4,0,4,0.00
2013-9-12,77,70,65,71,66,62,92,87,77,0.00,0.00,5,0,5,0.65
2013-9-13,72,65,56,64,59,51,93,81,59,0.00,0.00,10,0,10,0.02
2013-9-14,71,60,50,57,52,46,88,78,60,0.00,0.00,0,0,0,0.00
2013-9-15,74,63,53,62,56,50,90,79,62,0.00,0.00,2,0,2,0.00
2013-9-16,75,64,56,65,58,52,90,80,63,0.00,0.00,0,0,0,0.00
2013-9-17,69,64,60,58,55,53,88,76,62,0.00,0.00,0,0,0,0.00
2013-9-18,66,62,57,58,56,51,87,78,72,0.00,0.00,0,0,0,0.00
2013-9-19,75,67,62,66,61,58,89,84,71,0.00,0.00,0,0,0,0.00
2013-9-20,78,69,63,67,63,59,91,82,65,0.00,0.00,0,0,0,0.00
2013-9-21,69,64,61,64,61,59,92,89,82,0.00,0.00,0,0,0,1.16
2013-9-22,67,60,53,59,55,50,92,85,68,0.00,0.00,0,0,0,0.12
2013-9-23,71,60,52,60,55,49,91,83,67,0.00,0.00,0,0,0,0.00
2013-9-24,73,62,54,62,57,50,90,82,67,0.00,0.00,0,0,0,0.00
2013-9-25,64,62,59,61,59,56,92,89,84,0.00,0.00,0,0,0,0.78
2013-9-26,70,62,57,63,58,54,92,87,71,0.00,0.00,0,0,0,0.00
2013-9-27,70,61,56,61,56,53,91,84,70,0.00,0.00,0,0,0,0.00
2013-9-28,68,61,52,58,54,48,89,80,69,0.00,0.00,0,0,0,0.00
2013-9-29,68,60,52,58,54,47,87,79,67,0.00,0.00,0,0,0,0.00
2013-9-30,70,62,55,60,56,51,88,80,67,0.00,0.00,0,0,0,0.00
2013-10-1,72,62,56,62,56,52,90,82,68,0.00,0.00,0,0,0,0.00
2013-10-2,74,62,56,64,57,52,90,84,69,0.00,0.00,0,0,0,0.00
2013-10-3,73,64,57,65,59,54,91,83,71,0.00,0.00,0,0,0,0.00
2013-10-4,77,65,57,65,59,53,90,82,66,0.00,0.00,0,0,0,0.00
2013-10-5,79,67,59,67,60,56,91,81,58,0.00,0.00,0,0,0,0.00
2013-10-6,77,68,59,65,60,56,92,78,59,0.00,0.00,0,0,0,0.00
2013-10-7,68,58,50,62,54,46,91,86,74,0.00,0.00,6,0,6,1.12
2013-10-8,65,54,46,53,47,43,90,80,59,0.00,0.00,0,0,0,0.00
2013-10-9,68,55,44,57,49,41,89,80,66,0.00,0.00,3,0,3,0.00
2013-10-10,67,56,48,56,49,44,90,79,61,0.00,0.00,10,0,10,0.00
2013-10-11,70,58,48,58,52,44,89,79,61,0.00,0.00,3,0,3,0.00
2013-10-12,70,60,52,61,55,48,89,82,71,0.00,0.00,0,0,0,0.00
2013-10-13,70,64,59,62,59,55,90,84,74,0.00,0.00,2,0,2,0.00
2013-10-14,69,63,59,62,58,54,90,85,74,0.00,0.00,0,0,0,0.00
2013-10-15,68,60,52,58,54,49,90,83,71,0.00,0.00,3,0,3,0.00
2013-10-16,68,60,52,58,54,48,89,82,68,0.00,0.00,0,0,0,0.00
2013-10-17,71,63,56,64,58,51,92,86,76,0.00,0.00,2,0,2,0.04
2013-10-18,64,56,47,53,49,43,88,78,64,0.00,0.00,2,0,2,0.00
2013-10-19,61,55,51,55,49,45,87,81,69,0.00,0.00,4,0,4,0.00
2013-10-20,60,49,39,45,40,35,87,73,48,0.00,0.00,2,0,2,0.00
2013-10-21,65,51,38,52,44,34,88,77,56,0.00,0.00,4,0,4,0.00
2013-10-22,64,56,50,53,48,44,87,78,60,0.00,0.00,3,0,3,0.00
2013-10-23,53,46,39,44,37,29,86,72,56,0.00,0.00,10,0,10,0.00
2013-10-24,51,41,32,39,33,26,82,73,61,0.00,0.00,5,0,5,0.00
2013-10-25,44,37,30,36,28,23,80,70,56,0.00,0.00,8,0,8,0.00
2013-10-26,54,39,26,38,29,20,81,69,46,0.00,0.00,1,0,1,0.00
2013-10-27,63,54,46,49,43,37,79,68,60,0.00,0.00,5,0,5,0.00
2013-10-28,60,53,46,56,48,41,89,85,80,0.00,0.00,0,0,0,0.02
2013-10-29,66,57,48,55,50,45,90,78,60,0.00,0.00,4,0,4,0.00
2013-10-30,71,61,54,58,53,48,84,75,63,0.00,0.00,0,0,0,0.00
2013-10-31,65,62,54,59,54,50,86,77,67,0.00,0.00,14,1,14,0.00
2013-11-1,71,63,51,59,54,44,88,74,57,0.00,0.00,9,0,9,0.00
2013-11-2,57,49,43,47,41,36,85,74,58,0.00,0.00,3,0,3,0.00
2013-11-3,53,45,39,42,36,31,84,73,56,0.00,0.00,6,0,6,0.00
2013-11-4,56,45,34,36,32,29,81,61,42,0.00,0.00,9,1,9,0.00
2013-11-5,60,47,37,38,32,28,72,57,34,0.00,0.00,9,0,9,0.00
2013-11-6,66,56,48,52,48,38,88,75,59,0.00,0.00,10,0,10,0.00
2013-11-7,58,51,38,52,44,31,87,78,69,0.00,0.00,8,0,8,0.00
2013-11-8,50,40,32,32,27,22,77,63,44,0.00,0.00,7,0,7,0.00
2013-11-9,54,40,28,35,28,22,78,63,43,0.00,0.00,5,0,5,0.00
2013-11-10,61,46,36,44,33,27,74,61,41,0.00,0.00,7,0,7,0.00
2013-11-11,60,44,29,37,28,22,76,57,35,0.00,0.00,7,0,7,0.00
2013-11-12,50,38,26,38,27,14,73,66,60,0.00,0.00,12,0,12,0.00
2013-11-13,40,29,20,24,17,12,73,62,49,0.00,0.00,8,0,8,0.00
2013-11-14,54,37,20,33,21,13,77,55,31,0.00,0.00,10,0,10,0.00
2013-11-15,45,38,29,41,28,16,86,69,47,0.00,0.00,3,0,3,0.00
2013-11-16,61,52,43,53,47,39,89,83,74,0.00,0.00,7,0,7,0.00
2013-11-17,62,59,56,56,54,51,92,86,77,0.00,0.00,9,1,9,0.00
2013-11-18,64,54,44,57,44,32,92,72,51,0.00,0.00,8,0,8,0.00
2013-11-19,51,43,36,33,29,26,67,59,45,0.00,0.00,10,0,10,0.00
2013-11-20,50,43,36,31,27,25,65,54,42,0.00,0.00,15,2,15,0.00
2013-11-21,53,47,40,50,40,29,91,76,64,0.00,0.00,7,0,7,0.00
2013-11-22,65,57,50,58,52,47,91,85,76,0.00,0.00,8,0,8,0.00
2013-11-23,56,46,32,52,40,22,88,81,67,0.00,0.00,8,0,8,0.00
2013-11-24,37,27,22,22,14,10,67,59,47,0.00,0.00,8,0,8,0.00
2013-11-25,40,31,20,26,14,10,72,51,35,0.00,0.00,10,0,10,0.00
2013-11-26,43,39,33,41,36,26,91,88,71,0.00,0.00,6,0,6,0.00
2013-11-27,42,30,24,39,26,18,91,86,77,0.00,0.00,12,0,12,0.00
2013-11-28,42,28,18,30,21,13,82,73,60,0.00,0.00,6,0,6,0.00
2013-11-29,49,33,22,36,25,18,83,72,58,0.00,0.00,4,0,4,0.00
2013-11-30,49,37,30,31,24,21,71,62,49,0.00,0.00,6,0,6,0.00
2013-12-1,57,36,25,40,27,19,80,70,53,0.00,0.00,5,0,5,0.00
2013-12-2,54,42,30,42,34,24,84,75,62,0.00,0.00,5,0,5,0.00
2013-12-3,58,50,41,49,43,36,85,78,69,0.00,0.00,10,0,10,0.00
2013-12-4,67,56,49,55,51,45,87,81,66,0.00,0.00,10,1,10,0.00
2013-12-5,72,62,55,62,57,51,92,84,68,0.00,0.00,11,1,11,0.00
2013-12-6,70,64,51,63,59,47,92,85,75,0.00,0.00,12,2,12,0.00
2013-12-7,52,42,40,48,38,36,88,86,83,0.00,0.00,7,0,7,0.00
2013-12-8,43,40,38,39,36,34,90,86,81,0.00,0.00,11,1,11,0.00
2013-12-9,50,44,38,48,42,36,93,92,90,0.00,0.00,4,0,4,0.00
2013-12-10,44,38,29,42,34,24,92,87,79,0.00,0.00,10,0,10,0.00
2013-12-11,44,33,21,32,24,18,86,72,57,0.00,0.00,4,0,4,0.00
2013-12-12,40,31,24,25,19,15,75,63,48,0.00,0.00,6,0,6,0.00
2013-12-13,46,32,19,28,21,13,79,63,47,0.00,0.00,0,0,0,0.00
2013-12-14,44,41,38,40,34,24,89,76,49,0.00,0.00,9,0,9,0.00
2013-12-15,43,35,29,40,32,25,90,86,83,0.00,0.00,9,0,9,0.00
2013-12-16,49,35,25,40,28,21,87,76,58,0.00,0.00,1,0,1,0.00
2013-12-17,54,39,27,42,30,22,85,72,57,0.00,0.00,12,0,12,0.00
2013-12-18,45,34,28,25,20,14,72,56,41,0.00,0.00,7,0,7,0.00
2013-12-19,58,41,23,36,24,15,74,55,37,0.00,0.00,11,1,11,0.00
2013-12-20,63,50,35,45,33,23,73,53,37,0.00,0.00,8,1,8,0.00
2013-12-21,64,60,53,61,55,45,91,83,73,0.00,0.00,14,2,14,0.00
2013-12-22,65,59,56,61,56,52,93,89,78,0.00,0.00,10,1,10,0.00
2013-12-23,57,46,35,55,43,31,93,90,86,0.00,0.00,62,1,62,0.00
2013-12-24,35,30,22,31,24,16,88,78,69,0.00,0.00,9,0,9,0.00
2013-12-25,41,28,18,25,17,14,84,66,45,0.00,0.00,6,0,6,0.00
2013-12-26,47,31,21,33,22,15,79,68,54,0.00,0.00,5,0,5,0.00
2013-12-27,47,32,22,34,23,17,82,69,48,0.00,0.00,4,0,4,0.00
2013-12-28,44,33,23,37,27,17,88,78,67,0.00,0.00,6,0,6,0.00
2013-12-29,52,42,38,48,38,34,91,88,83,0.00,0.00,7,1,7,0.00
2013-12-30,43,39,35,39,35,30,86,85,84,0.00,0.00,5,0,5,0.00
2013-12-31,39,32,27,31,26,20,86,77,65,0.00,0.00,8,0,8,0.00
2014-1-1,45,34,24,32,25,20,84,70,49,0.00,0.00,12,1,12,0.00
2014-1-2,46,34,20,42,29,14,85,80,69,0.00,0.00,4,0,5,0.00